CAPE
0 0 0 0 0 11 32 61 15 323 468 94 65 95 72 114 77 16 19 61 759 1295 1204 1447 1661 828 737 454 258 183 260 314 193 138 164 202 166 177 197 195 131 91 143 169 131 122 161 171 158
0 0 0 3 0 5 3 29 74 348 429 78 50 63 126 141 171 125 153 758 1116 1190 1158 1404 1679 1035 804 518 334 221 234 232 162 210 253 249 224 277 295 257 257 257 258 215 161 125 80 37 18
0 0 7 15 0 0 29 84 189 648 564 485 520 258 149 0 86 71 158 1027 1148 1069 1039 1408 1619 1178 819 526 344 299 274 233 265 323 356 343 321 420 580 419 397 330 281 180 112 99 83 57 35
0 0 14 10 0 19 144 585 624 626 454 233 283 209 113 55 16 41 1014 1071 974 969 967 1657 1661 1181 859 572 406 367 358 387 441 440 320 297 425 514 514 468 413 340 223 168 144 134 159 184 206
0 0 27 11 0 0 27 620 419 277 75 41 120 174 152 367 603 1012 892 754 620 827 957 1589 1638 1143 930 713 546 476 515 526 573 530 447 487 581 586 561 511 436 349 285 222 160 124 107 137 200
0 0 21 12 0 2 13 370 203 70 52 60 246 254 304 710 864 990 807 625 536 680 1222 1459 1500 1344 1311 934 739 650 650 679 701 755 679 673 664 633 613 521 451 385 323 265 203 184 192 338 442
0 0 9 17 9 6 57 119 81 101 65 22 69 59 325 421 676 882 671 559 551 642 1130 1367 1318 1109 1239 1229 1031 869 814 777 950 999 997 771 735 709 652 600 551 497 436 403 389 504 688 815 867
0 1 4 0 0 12 102 129 135 72 20 4 32 11 161 202 599 717 691 596 621 674 1023 1218 1343 1081 1103 1041 1161 1127 932 913 924 894 894 849 807 764 702 823 789 662 595 589 744 934 1271 1363 1338
0 1 3 0 0 0 13 138 113 79 45 18 23 32 40 83 545 607 529 486 536 584 1506 1155 1115 1048 1011 977 1020 1310 1093 1099 1030 856 864 1031 655 576 707 734 738 789 928 1019 1203 1454 1630 1646 1636
0 0 1 0 0 0 20 34 86 48 43 19 13 46 73 178 438 403 330 279 408 480 717 651 724 980 884 996 995 1076 987 992 973 946 864 856 598 509 752 870 1104 1254 1320 1482 1905 1990 1885 1638 1224
0 1 3 0 0 0 16 30 30 14 18 10 1 101 83 231 249 231 154 193 292 454 584 598 595 897 844 781 821 988 950 1018 1021 1029 955 993 717 607 656 730 664 723 1026 1091 1100 1125 1107 1085 1015
0 4 2 0 0 0 0 0 0 15 40 3 0 142 150 231 220 131 66 92 159 508 577 620 589 718 654 646 722 664 694 809 1007 983 896 829 750 592 479 430 528 689 782 856 968 1108 1057 1020 936
0 0 0 0 0 0 0 0 0 7 20 2 0 158 214 235 215 235 152 110 92 304 593 732 608 691 551 609 683 640 600 577 631 566 731 708 614 518 406 314 430 499 539 691 844 917 1008 915 789
0 0 0 0 0 0 0 0 0 0 0 9 0 121 281 219 204 197 227 256 160 140 310 551 735 657 609 536 621 663 574 536 569 561 517 492 510 531 487 345 288 492 623 558 896 999 774 547 348
0 0 0 0 0 0 0 0 0 0 0 23 6 20 314 370 208 318 356 382 330 428 373 462 517 584 571 532 566 659 547 703 564 608 664 677 690 690 647 699 652 666 590 558 568 561 471 426 520
0 0 0 0 0 0 0 0 0 0 0 22 24 3 163 455 372 402 553 547 550 648 647 607 567 564 613 747 746 739 642 888 848 857 926 857 812 798 791 663 768 757 932 892 906 857 815 794 812
0 0 0 0 0 0 0 0 0 0 0 16 50 671 801 744 1353 691 697 721 650 683 739 747 654 582 586 848 868 927 925 944 1036 1022 1164 1024 1003 1233 1154 1060 732 835 864 836 853 863 828 809 781
0 0 0 0 0 0 0 0 0 0 0 0 66 732 1361 1405 1160 1623 1450 871 845 825 904 896 927 659 683 896 1118 1121 1161 1160 1499 1279 1415 1495 1412 1480 1508 1302 917 811 910 971 1010 871 814 664 614
0 0 0 0 0 0 0 0 0 0 0 0 36 773 1230 1493 1502 1719 1713 1294 1100 1067 1018 1048 979 730 743 959 1078 1103 1240 1533 1762 1964 1552 1559 1485 1255 1350 1161 999 913 889 888 599 649 452 430 354
0 0 0 0 0 0 0 0 0 0 0 0 137 1031 1265 1505 1493 1655 1583 1467 1065 936 950 973 844 829 973 1065 1396 1374 1706 1874 1569 1566 1654 1555 1375 1348 1191 1256 1218 1085 853 830 552 558 341 247 157
0 0 0 0 0 0 0 0 0 0 0 0 361 971 1264 1312 1437 1696 1642 1648 1517 1335 1076 1024 1003 1284 1345 1482 1538 1828 1980 1755 1593 1630 1651 1569 1108 1028 991 988 861 725 666 629 427 322 196 4 0
0 0 0 0 0 0 0 0 0 0 0 0 557 1322 1396 1508 1592 1802 1900 1886 1885 1800 1535 1381 1450 1740 1781 1707 1803 1905 1977 1945 1502 1602 1652 1472 1312 933 686 573 578 335 160 319 191 10 0 0 0
0 0 0 0 0 0 0 0 0 0 0 0 288 1060 1481 1615 1790 1919 2192 2133 2153 2175 2236 2284 2318 2319 2329 2358 2480 2525 2317 1363 1188 1203 1224 1235 1048 554 655 156 125 34 0 0 0 0 0 0 0
0 0 0 0 0 0 0 0 0 0 0 0 0 433 1051 1651 1977 2048 2301 2390 2374 2338 2392 2429 2514 2560 2625 2655 2586 2427 2030 1584 980 957 1084 912 538 231 86 26 0 0 0 0 0 0 0 0 0
0 0 0 0 0 0 0 0 0 0 0 0 0 0 411 1183 1866 2153 2315 2488 2564 2603 2568 2410 2215 2272 1987 1901 1902 1810 1664 1432 877 1053 450 168 64 29 0 0 0 0 0 0 0 0 0 0 0
0 0 0 0 0 0 0 0 0 0 0 0 0 0 20 625 1030 2018 2198 2450 2568 2439 2291 2098 1863 1653 1652 1735 1685 1609 1504 1391 1186 895 350 6 0 0 0 0 0 0 0 0 0 0 0 0 0
0 0 0 0 0 0 0 0 0 0 0 0 0 0 27 364 658 969 1599 2080 2350 2281 1773 1577 1259 1325 1382 1455 1373 1156 846 421 0 0 0 0 0 0 0 0 0 0 0 0 0 0 0 0 0
0 0 0 0 0 0 0 0 0 0 0 0 0 0 0 263 548 687 852 1240 1398 1141 686 737 805 771 556 350 311 126 0 0 0 0 0 0 0 0 0 0 0 0 0 0 0 0 0 0 0
0 0 0 0 0 0 0 0 0 0 0 0 0 0 0 316 558 553 522 745 937 744 487 456 233 15 0 9 56 0 0 0 0 0 0 0 0 0 0 0 0 0 0 0 0 0 0 0 0
0 0 0 0 0 0 0 0 0 0 0 0 8 0 265 527 614 495 437 709 825 709 543 253 0 0 0 6 10 0 0 0 0 0 0 0 0 0 0 0 0 0 0 0 0 0 0 0 0
CIN
-0 -0 -0 -0 -0 -32 -40 -50 -181 -101 -138 -222 -26 -47 -149 -97 -34 -75 -279 -559 -273 -152 -146 -95 -67 -182 -202 -278 -319 -339 -300 -261 -293 -315 -281 -234 -243 -216 -177 -150 -179 -201 -137 -99 -100 -73 -38 -27 -31
-0 -0 -0 -11 -0 -23 -25 -47 -43 -66 -132 -157 -123 -160 -104 -92 -71 -406 -527 -296 -246 -216 -178 -116 -65 -138 -180 -246 -290 -315 -300 -288 -297 -253 -216 -201 -201 -153 -125 -128 -114 -89 -72 -73 -83 -80 -81 -98 -157
-0 -0 -4 -13 -0 -0 -96 -140 -56 -69 -113 -101 -119 -179 -230 -0 -577 -613 -590 -288 -236 -227 -208 -133 -75 -119 -182 -232 -269 -268 -273 -276 -247 -208 -172 -157 -148 -99 -54 -83 -78 -80 -82 -122 -164 -141 -120 -107 -109
-0 -0 -14 -4 -0 -103 -94 -56 -65 -95 -90 -112 -157 -198 -254 -287 -509 -239 -318 -279 -268 -220 -201 -97 -79 -127 -177 -232 -261 -257 -246 -227 -197 -181 -216 -207 -144 -110 -99 -100 -101 -104 -143 -162 -152 -140 -109 -73 -59
-0 -0 -3 -0 -0 -0 -117 -51 -72 -118 -100 -184 -150 -259 -235 -442 -460 -340 -344 -334 -349 -264 -184 -84 -70 -138 -175 -209 -229 -226 -205 -189 -164 -172 -194 -167 -135 -119 -102 -97 -117 -141 -150 -153 -167 -182 -159 -133 -97
-0 -0 -2 -1 -0 -12 -31 -65 -96 -51 -104 -152 -162 -160 -123 -374 -379 -347 -373 -380 -374 -290 -152 -96 -82 -102 -111 -167 -191 -187 -183 -163 -148 -135 -145 -135 -125 -116 -98 -114 -140 -156 -160 -158 -150 -158 -141 -102 -71
-0 -0 -4 -2 -3 -28 -174 -88 -8 -18 -27 -50 -158 -174 -121 -129 -431 -366 -398 -368 -316 -253 -160 -138 -136 -163 -143 -143 -164 -168 -165 -156 -116 -104 -101 -127 -113 -110 -116 -133 -136 -154 -149 -146 -137 -102 -77 -62 -43
-0 -0 -1 -0 -0 -145 -122 -193 -69 -10 -20 -29 -206 -318 -177 -207 -498 -424 -365 -340 -284 -259 -191 -161 -139 -170 -166 -181 -158 -153 -164 -151 -148 -127 -117 -119 -125 -117 -125 -103 -112 -143 -135 -126 -101 -71 -45 -44 -44
-0 -0 -8 -0 -0 -0 -113 -95 -46 -23 -25 -34 -163 -240 -257 -734 -547 -475 -427 -399 -328 -297 -146 -188 -189 -182 -184 -209 -191 -139 -153 -143 -145 -150 -129 -109 -177 -187 -156 -141 -132 -122 -95 -83 -67 -43 -39 -45 -50
-0 -6 -1 -0 -0 -0 -18 -49 -30 -25 -51 -46 -141 -368 -290 -715 -621 -579 -549 -551 -450 -417 -328 -324 -292 -225 -233 -209 -206 -190 -175 -180 -159 -148 -159 -150 -212 -231 -152 -125 -90 -77 -69 -49 -25 -22 -36 -69 -116
-0 -18 -22 -0 -0 -0 -19 -31 -134 -68 -42 -67 -74 -237 -386 -693 -670 -666 -661 -639 -607 -491 -409 -382 -363 -276 -287 -301 -259 -202 -192 -174 -169 -157 -168 -142 -192 -198 -190 -165 -187 -172 -131 -113 -112 -110 -114 -127 -134
-0 -88 -42 -0 -0 -0 -0 -0 -22 -131 -37 -54 -28 -209 -127 -676 -685 -692 -238 -63 -636 -510 -464 -419 -395 -368 -378 -365 -317 -295 -254 -219 -201 -200 -207 -201 -199 -236 -269 -263 -246 -170 -135 -168 -155 -140 -139 -116 -143
-0 -0 -0 -0 -0 -0 -0 -0 -0 -118 -84 -84 -33 -265 -165 -136 -614 -628 -606 -265 -138 -612 -489 -427 -430 -394 -422 -408 -367 -355 -325 -320 -325 -324 -276 -275 -281 -301 -284 -290 -99 -95 -146 -165 -160 -142 -101 -109 -108
-0 -0 -0 -0 -0 -0 -0 -0 -0 -0 -0 -83 -0 -418 -194 -172 -139 -352 -507 -46 -69 -65 -607 -506 -452 -449 -430 -434 -405 -385 -371 -363 -350 -361 -372 -355 -165 -70 -52 -89 -262 -95 -107 -233 -102 -93 -137 -266 -334
-0 -0 -0 -0 -0 -0 -0 -0 -0 -0 -0 -53 -97 -301 -161 -113 -452 -29 -21 -31 -44 -27 -60 -8 -533 -500 -472 -67 -177 -375 -137 -71 -78 -78 -70 -64 -54 -51 -81 -77 -80 -153 -98 -69 -74 -74 -122 -125 -190
-0 -0 -0 -0 -0 -0 -0 -0 -0 -0 -0 -94 -51 -176 -169 -114 -116 -34 -34 -36 -34 -14 -10 -6 -11 -10 -29 -28 -28 -39 -50 -79 -75 -75 -66 -64 -55 -55 -60 -94 -76 -152 -103 -80 -70 -62 -77 -92 -93
-0 -0 -0 -0 -0 -0 -0 -0 -0 -0 -0 -19 -51 -317 -316 -384 -450 -287 -31 -54 -35 -19 -10 -6 -8 -8 -32 -15 -35 -47 -58 -55 -72 -77 -69 -67 -62 -52 -42 -48 -163 -148 -113 -101 -72 -61 -67 -82 -71
-0 -0 -0 -0 -0 -0 -0 -0 -0 -0 -0 -0 -38 -384 -331 -356 -358 -466 -496 -50 -49 -40 -23 -14 -12 -13 -23 -21 -27 -36 -35 -43 -56 -88 -101 -81 -48 -43 -36 -49 -86 -105 -78 -58 -48 -43 -51 -65 -77
-0 -0 -0 -0 -0 -0 -0 -0 -0 -0 -0 -0 -539 -408 -386 -344 -378 -458 -479 -573 -53 -60 -45 -32 -23 -22 -90 -26 -37 -41 -30 -25 -46 -27 -51 -60 -39 -39 -46 -38 -41 -28 -41 -36 -68 -63 -64 -54 -65
-0 -0 -0 -0 -0 -0 -0 -0 -0 -0 -0 -0 -477 -485 -420 -376 -377 -444 -454 -524 -630 -457 -64 -51 -22 -15 -22 -37 -224 -178 -72 -6 -4 -20 -14 -12 -21 -24 -34 -19 -8 -15 -12 -5 -4 -4 -48 -51 -62
-0 -0 -0 -0 -0 -0 -0 -0 -0 -0 -0 -0 -459 -419 -449 -408 -371 -430 -446 -469 -513 -535 -590 -558 -160 -217 -37 -30 -187 -84 -23 -20 -37 -25 -17 -12 -10 -27 -35 -20 -13 -14 -10 -5 -20 -34 -61 -34 -0
-0 -0 -0 -0 -0 -0 -0 -0 -0 -0 -0 -0 -403 -359 -399 -404 -401 -342 -321 -353 -374 -387 -398 -400 -375 -207 -198 -41 -112 -59 -33 -25 -39 -28 -12 -12 -12 -19 -28 -26 -21 -56 -109 -47 -79 -26 -0 -0 -0
-0 -0 -0 -0 -0 -0 -0 -0 -0 -0 -0 -0 -351 -318 -341 -355 -334 -291 -251 -280 -249 -241 -238 -211 -169 -159 -125 -76 -34 -12 -1 -30 -40 -19 -9 -10 -8 -25 -5 -111 -108 -161 -0 -0 -0 -0 -0 -0 -0
-0 -0 -0 -0 -0 -0 -0 -0 -0 -0 -0 -0 -0 -298 -305 -275 -236 -222 -202 -174 -169 -178 -153 -129 -94 -82 -51 -23 -16 -9 -2 -4 -11 -17 -5 -3 -36 -76 -144 -190 -0 -0 -0 -0 -0 -0 -0 -0 -0
-0 -0 -0 -0 -0 -0 -0 -0 -0 -0 -0 -0 -0 -0 -411 -279 -184 -145 -154 -130 -116 -117 -98 -115 -111 -67 -86 -104 -74 -49 -29 -12 -50 -10 -72 -149 -195 -192 -0 -0 -0 -0 -0 -0 -0 -0 -0 -0 -0
-0 -0 -0 -0 -0 -0 -0 -0 -0 -0 -0 -0 -0 -0 -331 -391 -295 -175 -124 -137 -115 -114 -105 -118 -109 -105 -119 -108 -80 -56 -26 -8 -5 -10 -90 -22 -0 -0 -0 -0 -0 -0 -0 -0 -0 -0 -0 -0 -0
-0 -0 -0 -0 -0 -0 -0 -0 -0 -0 -0 -0 -0 -0 -388 -583 -471 -350 -235 -163 -117 -67 -99 -96 -139 -110 -121 -114 -76 -83 -94 -165 -0 -0 -0 -0 -0 -0 -0 -0 -0 -0 -0 -0 -0 -0 -0 -0 -0
-0 -0 -0 -0 -0 -0 -0 -0 -0 -0 -0 -0 -0 -0 -0 -661 -591 -469 -347 -219 -146 -86 -78 -192 -134 -130 -196 -279 -254 -273 -25 -0 -0 -0 -0 -0 -0 -0 -0 -0 -0 -0 -0 -0 -0 -0 -0 -0 -0
-0 -0 -0 -0 -0 -0 -0 -0 -0 -0 -0 -0 -0 -0 -0 -608 -482 -429 -415 -314 -121 -91 -83 -90 -143 -102 -0 -313 -245 -0 -0 -0 -0 -0 -0 -0 -0 -0 -0 -0 -0 -0 -0 -0 -0 -0 -0 -0 -0
-0 -0 -0 -0 -0 -0 -0 -0 -0 -0 -0 -0 -447 -0 -542 -488 -416 -410 -413 -233 -144 -104 -89 -85 -10 -0 -0 -343 -291 -0 -0 -0 -0 -0 -0 -0 -0 -0 -0 -0 -0 -0 -0 -0 -0 -0 -0 -0 -0
Wind_Speed
nan nan nan nan nan nan nan nan nan 14 11 nan nan nan nan 4 nan nan nan nan 9 10 11 15 17 17 17 16 16 16 17 18 19 20 22 23 24 26 27 27 28 nan 29 29 28 27 24 23 21
nan nan nan nan nan nan nan nan nan 16 17 nan nan nan 7 8 2 7 10 8 13 13 10 10 15 14 15 15 16 17 19 20 21 22 23 24 25 26 28 28 28 27 27 26 26 25 nan nan nan
nan nan nan nan nan nan nan nan 10 13 15 16 15 16 14 nan nan nan 14 16 15 12 13 14 17 16 16 16 17 17 20 21 23 24 24 24 25 26 26 27 26 26 25 25 24 nan nan nan nan
nan nan nan nan nan nan 4 3 9 9 13 22 18 19 14 nan nan nan 23 23 17 12 10 14 17 16 16 16 16 17 18 21 22 24 24 24 25 25 25 25 25 24 23 22 22 21 22 22 20
nan nan nan nan nan nan nan 1 10 8 nan nan 14 23 11 7 17 18 22 26 27 18 12 12 16 16 14 13 13 14 15 17 19 20 22 22 23 23 23 23 22 21 19 19 20 20 19 19 19
nan nan nan nan nan nan nan 6 8 nan nan nan 16 19 9 11 9 16 21 25 23 24 18 14 14 11 11 13 12 11 11 12 14 16 18 19 20 21 21 20 19 19 19 17 16 15 14 14 14
nan nan nan nan nan nan nan 7 nan 3 nan nan nan nan 4 8 14 17 18 18 14 24 16 10 7 8 12 13 14 14 13 14 14 17 18 20 20 20 21 20 19 18 17 16 14 12 12 9 7
nan nan nan nan nan nan 16 8 6 nan nan nan nan nan 11 11 22 22 21 21 20 14 12 7 6 4 3 4 12 13 14 15 16 15 16 16 16 15 15 14 13 13 15 15 13 10 10 10 9
nan nan nan nan nan nan nan 12 9 nan nan nan nan nan nan nan 20 19 19 12 12 10 13 13 10 6 4 3 8 12 14 15 14 15 16 13 10 10 11 11 11 10 10 12 13 12 12 13 12
nan nan nan nan nan nan nan nan nan nan nan nan nan nan nan 21 28 26 20 13 12 13 15 15 15 14 9 6 6 7 7 9 10 11 12 11 12 12 11 9 9 10 9 9 9 9 11 11 13
nan nan nan nan nan nan nan nan nan nan nan nan nan 15 nan 27 23 24 16 13 13 11 10 10 13 14 12 7 7 6 7 10 12 13 14 13 13 11 11 11 12 13 10 10 8 7 8 8 11
nan nan nan nan nan nan nan nan nan nan nan nan nan 22 20 22 22 24 nan nan 10 8 8 10 11 10 13 9 11 13 14 14 14 14 16 15 15 14 13 12 14 14 15 12 13 12 10 8 9
nan nan nan nan nan nan nan nan nan nan nan nan nan 23 16 15 16 12 9 9 nan 10 14 11 12 11 8 11 14 15 15 15 14 14 15 16 15 13 13 13 13 13 13 14 12 12 11 9 10
nan nan nan nan nan nan nan nan nan nan nan nan nan 24 16 9 11 9 9 8 7 10 14 16 15 11 10 12 14 15 15 15 15 14 15 14 12 14 15 14 15 14 15 15 15 15 16 13 12
nan nan nan nan nan nan nan nan nan nan nan nan nan nan 14 13 11 6 4 3 6 10 13 19 14 14 12 12 14 14 15 17 15 15 17 18 16 16 16 10 18 17 14 14 17 18 20 20 20
nan nan nan nan nan nan nan nan nan nan nan nan nan nan 19 8 5 2 3 3 6 11 14 15 16 16 16 14 15 16 16 18 16 15 17 20 19 20 22 16 15 15 21 24 20 24 25 25 24
nan nan nan nan nan nan nan nan nan nan nan nan nan 38 26 2 9 9 7 6 9 13 16 16 16 18 19 15 17 17 17 18 14 16 17 20 23 24 22 20 21 27 27 28 24 27 26 26 22
nan nan nan nan nan nan nan nan nan nan nan nan nan 34 27 10 8 15 13 12 11 13 15 16 16 20 19 20 20 18 19 19 18 19 21 24 27 30 30 27 27 27 29 29 30 30 29 24 24
nan nan nan nan nan nan nan nan nan nan nan nan nan 33 23 14 12 12 15 15 15 15 17 21 23 20 22 22 22 22 22 21 21 25 27 30 28 29 33 30 32 29 30 32 33 34 31 29 31
nan nan nan nan nan nan nan nan nan nan nan nan 42 33 21 18 13 12 16 18 15 18 21 24 21 26 23 25 24 25 25 25 27 28 32 33 34 32 34 34 34 35 34 34 36 37 35 37 37
nan nan nan nan nan nan nan nan nan nan nan nan 36 27 24 16 9 15 16 18 19 22 23 25 22 27 25 30 31 31 31 29 29 30 32 35 36 36 39 39 38 38 39 39 40 38 39 nan nan
nan nan nan nan nan nan nan nan nan nan nan nan 37 32 23 26 22 22 16 16 16 21 25 26 24 28 27 27 30 35 29 31 31 33 35 37 39 42 43 45 44 43 42 43 41 nan nan nan nan
nan nan nan nan nan nan nan nan nan nan nan nan 33 35 31 29 25 25 19 17 20 24 28 29 30 33 32 32 33 33 36 34 35 38 42 42 43 44 46 46 48 nan nan nan nan nan nan nan nan
nan nan nan nan nan nan nan nan nan nan nan nan nan 33 32 29 32 28 26 21 19 27 30 32 35 32 37 37 38 44 46 45 43 42 43 47 47 46 nan nan nan nan nan nan nan nan nan nan nan
nan nan nan nan nan nan nan nan nan nan nan nan nan nan 31 32 33 32 31 25 26 28 35 36 36 35 39 43 45 48 51 50 48 45 48 50 nan nan nan nan nan nan nan nan nan nan nan nan nan
nan nan nan nan nan nan nan nan nan nan nan nan nan nan nan 41 39 37 38 36 35 39 42 40 40 42 41 45 48 50 54 52 53 45 47 nan nan nan nan nan nan nan nan nan nan nan nan nan nan
nan nan nan nan nan nan nan nan nan nan nan nan nan nan nan 44 44 46 48 49 53 53 54 48 45 43 45 47 49 52 54 60 nan nan nan nan nan nan nan nan nan nan nan nan nan nan nan nan nan
nan nan nan nan nan nan nan nan nan nan nan nan nan nan nan 52 52 54 60 63 64 66 58 52 49 48 47 53 51 52 nan nan nan nan nan nan nan nan nan nan nan nan nan nan nan nan nan nan nan
nan nan nan nan nan nan nan nan nan nan nan nan nan nan nan 45 51 60 65 71 71 64 59 54 48 nan nan nan nan nan nan nan nan nan nan nan nan nan nan nan nan nan nan nan nan nan nan nan nan
nan nan nan nan nan nan nan nan nan nan nan nan nan nan 44 47 51 52 52 58 59 58 58 56 nan nan nan nan nan nan nan nan nan nan nan nan nan nan nan nan nan nan nan nan nan nan nan nan nan
Wind_Direction
nan nan nan nan nan nan nan nan nan 98 69 nan nan nan nan 46 nan nan nan nan 302 318 323 327 325 323 318 315 314 312 313 313 311 310 313 313 312 312 313 315 318 nan 320 321 323 322 323 323 319
nan nan nan nan nan nan nan nan nan 61 49 nan nan nan 31 14 18 329 307 332 317 311 304 293 308 309 311 310 312 314 314 313 312 311 310 310 311 313 314 315 318 319 320 320 324 325 nan nan nan
nan nan nan nan nan nan nan nan 77 59 59 46 15 349 327 nan nan nan 316 313 314 311 301 304 309 312 312 311 313 314 315 315 313 311 312 312 314 313 314 317 318 321 323 324 327 nan nan nan nan
nan nan nan nan nan nan 128 133 58 41 45 39 352 346 337 nan nan nan 310 310 303 297 282 309 311 316 316 319 322 323 322 320 318 315 314 316 317 318 321 322 323 323 325 327 330 331 334 333 334
nan nan nan nan nan nan nan 243 54 34 nan nan 343 342 314 294 280 291 303 309 307 300 286 301 313 319 328 332 334 335 334 328 323 322 323 325 325 326 325 323 325 328 332 334 334 336 342 338 339
nan nan nan nan nan nan nan 114 123 nan nan nan 310 323 319 314 304 311 298 297 300 302 289 288 306 323 336 336 338 343 338 333 328 326 322 320 318 314 314 318 324 329 330 331 335 333 341 347 339
nan nan nan nan nan nan nan 227 nan 97 nan nan nan nan 346 342 323 318 310 300 306 322 298 288 287 323 333 331 335 338 333 327 327 323 320 317 315 314 315 322 328 334 333 337 342 343 348 1 347
nan nan nan nan nan nan 200 174 183 nan nan nan nan nan 355 340 326 310 313 298 306 327 340 313 316 322 334 343 4 355 348 343 334 339 338 341 345 341 340 338 341 345 342 351 359 13 22 27 28
nan nan nan nan nan nan nan 211 237 nan nan nan nan nan nan nan 322 319 332 341 341 357 8 7 7 22 27 0 8 356 356 354 345 337 350 342 336 350 1 359 6 17 12 15 25 40 36 28 29
nan nan nan nan nan nan nan nan nan nan nan nan nan nan nan 335 338 332 341 350 1 3 19 19 16 21 23 16 9 336 346 316 309 313 326 325 335 335 339 352 6 14 17 19 29 33 31 28 357
nan nan nan nan nan nan nan nan nan nan nan nan nan 331 nan 320 334 344 347 2 2 354 357 19 18 15 14 352 325 304 297 302 306 318 317 324 329 326 322 327 323 324 354 334 329 339 344 351 337
nan nan nan nan nan nan nan nan nan nan nan nan nan 304 305 329 331 341 nan nan 324 352 3 350 9 18 3 319 310 309 311 305 311 321 319 321 321 327 324 318 318 326 322 323 314 314 322 327 321
nan nan nan nan nan nan nan nan nan nan nan nan nan 301 329 342 341 340 300 306 nan 343 343 331 345 352 332 317 307 309 318 318 322 323 328 319 324 332 326 329 335 339 326 325 319 313 305 310 323
nan nan nan nan nan nan nan nan nan nan nan nan nan 314 331 1 350 294 281 306 323 317 315 308 322 320 314 333 322 328 329 329 341 340 342 336 339 332 331 338 337 325 318 317 324 324 316 314 304
nan nan nan nan nan nan nan nan nan nan nan nan nan nan 352 11 320 8 20 317 299 301 303 319 321 313 316 324 314 317 322 336 344 346 336 330 332 321 324 324 309 303 299 296 313 313 309 300 294
nan nan nan nan nan nan nan nan nan nan nan nan nan nan 327 353 360 105 184 254 284 292 322 317 317 313 310 315 308 313 325 328 333 331 324 325 329 327 315 316 315 312 296 291 293 292 299 291 289
nan nan nan nan nan nan nan nan nan nan nan nan nan 297 310 10 186 193 224 269 307 320 318 322 316 308 306 297 293 308 317 315 326 316 319 320 310 316 309 303 289 294 295 289 290 281 289 291 292
nan nan nan nan nan nan nan nan nan nan nan nan nan 289 300 307 127 215 225 254 296 318 322 307 294 290 294 281 277 282 287 289 292 293 297 293 302 306 303 299 295 294 292 290 290 289 285 294 294
nan nan nan nan nan nan nan nan nan nan nan nan nan 278 283 292 233 223 262 265 281 294 297 301 293 284 286 282 284 279 280 289 287 284 284 282 289 293 300 302 300 299 296 300 301 306 301 299 299
nan nan nan nan nan nan nan nan nan nan nan nan 267 274 271 244 230 259 263 267 279 293 301 295 294 290 286 285 278 282 284 280 284 284 283 289 292 293 295 296 297 297 296 293 292 295 302 301 299
nan nan nan nan nan nan nan nan nan nan nan nan 259 261 257 268 275 269 259 262 274 293 303 300 299 289 286 281 280 276 277 283 284 284 288 289 290 290 295 293 294 293 295 297 293 292 289 nan nan
nan nan nan nan nan nan nan nan nan nan nan nan 262 268 272 248 244 247 244 243 262 275 279 284 287 288 285 291 287 298 295 299 296 298 296 294 293 293 294 295 295 294 296 294 292 nan nan nan nan
nan nan nan nan nan nan nan nan nan nan nan nan 258 269 274 256 246 255 253 254 252 258 269 270 275 281 286 287 289 291 294 298 303 301 296 298 293 292 293 295 293 nan nan nan nan nan nan nan nan
nan nan nan nan nan nan nan nan nan nan nan nan nan 274 274 269 249 251 261 267 266 255 260 270 277 277 284 288 294 300 302 302 306 302 300 298 298 292 nan nan nan nan nan nan nan nan nan nan nan
nan nan nan nan nan nan nan nan nan nan nan nan nan nan 282 279 277 278 285 286 280 272 265 267 273 274 280 289 292 296 297 297 302 302 302 297 nan nan nan nan nan nan nan nan nan nan nan nan nan
nan nan nan nan nan nan nan nan nan nan nan nan nan nan nan 277 284 290 299 298 291 281 276 271 273 273 276 281 286 291 294 293 293 293 301 nan nan nan nan nan nan nan nan nan nan nan nan nan nan
nan nan nan nan nan nan nan nan nan nan nan nan nan nan nan 274 278 288 287 287 283 282 280 272 272 267 271 277 278 282 283 285 nan nan nan nan nan nan nan nan nan nan nan nan nan nan nan nan nan
nan nan nan nan nan nan nan nan nan nan nan nan nan nan nan 259 270 275 273 275 271 276 274 266 264 267 266 270 272 278 nan nan nan nan nan nan nan nan nan nan nan nan nan nan nan nan nan nan nan
nan nan nan nan nan nan nan nan nan nan nan nan nan nan nan 265 265 268 270 269 270 270 268 268 267 nan nan nan nan nan nan nan nan nan nan nan nan nan nan nan nan nan nan nan nan nan nan nan nan
nan nan nan nan nan nan nan nan nan nan nan nan nan nan 258 265 268 274 272 272 270 268 271 272 nan nan nan nan nan nan nan nan nan nan nan nan nan nan nan nan nan nan nan nan nan nan nan nan nan